Theta_e
286 286 285 283 282 281 280 280 280 279 279 277 277 277 277 276 276 276 276 276 276 275
286 285 283 283 282 281 280 279 279 278 278 276 276 276 276 276 276 276 276 276 276 274
285 285 283 281 280 279 279 278 278 277 276 276 276 276 276 276 276 276 276 276 275 274
284 282 281 280 279 279 279 278 277 277 277 276 275 276 276 276 276 275 275 275 274 273
282 281 280 279 279 279 277 278 277 277 276 275 275 275 276 276 275 274 273 273 272 272
280 280 279 279 278 278 278 277 277 276 276 275 275 276 276 275 274 274 273 273 272 272
280 279 279 278 278 278 278 277 276 276 275 275 276 275 275 274 273 273 273 273 272 272
280 279 279 278 278 277 277 276 276 275 275 275 275 275 274 274 273 272 272 272 273 272
279 278 278 278 277 276 276 275 275 274 274 274 276 279 279 275 273 273 272 271 271 271
279 278 277 277 276 275 275 275 274 274 274 274 276 281 280 277 274 273 272 271 272 272
278 277 276 276 275 275 274 274 273 273 273 274 275 282 281 278 273 272 272 271 271 271
278 277 276 275 275 274 274 273 273 273 273 273 274 282 281 278 272 272 272 272 272 271
278 277 276 275 275 274 274 274 274 273 273 273 273 281 281 278 272 269 271 272 272 275
278 277 276 276 275 274 274 273 273 272 271 271 272 273 280 280 272 270 269 269 269 272
Wind_Speed
12 8 8 7 8 6 6 6 6 9 10 12 10 10 9 8 7 8 8 10 8 7
12 12 10 11 8 6 8 6 8 10 10 10 10 10 9 8 9 8 7 9 10 7
12 12 12 11 11 10 9 9 10 9 9 11 9 10 9 8 8 8 7 7 8 6
12 13 13 12 12 10 10 9 10 10 8 9 9 7 9 9 8 10 9 7 6 6
13 13 13 13 12 12 12 9 9 9 9 9 9 9 9 9 9 9 8 7 5 6
14 14 14 13 13 12 12 11 10 10 9 9 8 9 8 10 9 8 6 6 6 7
15 15 15 14 14 13 11 12 10 8 8 9 9 8 10 10 9 7 6 5 5 6
15 14 13 14 13 11 10 10 9 9 7 8 7 7 10 10 9 8 6 5 5 4
15 15 14 14 13 11 10 10 10 9 9 10 6 15 15 11 8 7 6 6 4 3
16 16 15 14 14 13 12 11 10 9 10 9 8 17 17 15 7 7 5 5 4 3
17 17 16 15 15 13 11 11 11 9 8 9 7 18 17 15 6 5 5 5 4 3
18 17 16 16 15 13 12 10 9 8 8 9 7 18 18 14 6 6 5 5 4 4
19 19 18 17 15 12 12 11 9 8 6 7 9 18 18 14 5 4 4 3 4 8
17 18 17 16 12 12 11 9 9 8 7 7 7 7 19 19 6 5 4 4 3 3
Wind_Direction
141 143 137 127 127 120 113 117 117 100 105 98 97 97 97 94 94 94 91 93 86 81
145 141 137 124 108 111 119 124 124 114 109 102 105 103 103 99 99 90 93 88 84 82
147 140 134 126 129 140 124 132 124 114 118 114 111 108 105 102 98 106 90 89 98 104
148 143 140 138 139 135 129 138 126 121 123 114 110 105 110 106 122 100 101 106 115 118
146 144 141 141 145 142 142 133 131 128 134 133 130 133 128 137 114 115 119 122 134 128
149 149 147 148 147 147 146 142 141 142 148 137 131 126 129 111 113 119 123 138 147 115
160 158 154 151 150 153 149 148 142 144 147 138 127 149 124 122 122 124 134 151 130 106
158 154 152 152 152 143 148 144 134 139 139 129 150 147 136 135 136 139 153 147 117 117
156 152 152 148 146 145 148 141 142 152 146 150 167 157 147 138 144 156 156 143 135 125
158 156 154 150 150 155 156 151 158 147 170 158 153 162 156 154 153 156 159 135 139 139
161 158 153 154 158 159 158 164 156 169 169 155 174 173 165 163 154 157 148 148 161 182
164 160 159 164 163 162 157 160 160 177 162 157 183 179 176 168 168 169 162 172 184 197
166 164 166 169 165 162 164 164 158 160 175 169 179 191 186 176 169 161 177 184 198 223
174 168 167 162 162 159 155 150 154 162 175 170 186 207 197 195 178 182 182 195 203 216